Weather History for KRTN - July, 2013

Change the Weather History Date:

Thursday, July 25, 2013

  Actual Average (KTAD) Record (KTAD)
Temperature  
Mean Temperature 68 °F 74 °F  
Max Temperature 84 °F 88 °F 100 °F (2003)
Min Temperature 55 °F 59 °F 49 °F (1950)
Degree Days  
Heating Degree Days 0 0  
Month to date heating degree days 0  
Since 1 June heating degree days 39  
Since 1 July heating degree days 0  
Cooling Degree Days 4 9  
Month to date cooling degree days 219  
Year to date cooling degree days 388  
Since 1 June cooling degree days 360  
Growing Degree Days 18 (Base 50)    
Moisture  
Dew Point 53 °F    
Average Humidity 60    
Maximum Humidity 87    
Minimum Humidity 29    
Precipitation  
Precipitation 0.02 in 0.09 in 3.67 in (2010)
Month to date precipitation 1.77  
Year to date precipitation 7.70  
Sea Level Pressure  
Sea Level Pressure 30.02 in    
Wind  
Wind Speed 11 mph (WNW)    
Max Wind Speed 25 mph    
Max Gust Speed 41 mph    
Visibility 10 miles    
Events Rain    
T = Trace of Precipitation, MM = Missing Value Source: NWS Daily Summary

Daily Weather History Graph

Daily Weather History Graph

Search for Another Location

Airport or City:

Trip Planner

Search our weather history database for the weather conditions in past years. The results will help you decide how hot, cold, wet, or windy it might be!

Date:

Astronomy

Jul. 25, 2013 Rise Set
Actual Time 5:58 AM MDT 8:10 PM MDT
Civil Twilight 5:29 AM MDT 8:39 PM MDT
Nautical Twilight 4:53 AM MDT 9:14 PM MDT
Astronomical Twilight 4:14 AM MDT 9:53 PM MDT
Moon 10:00 PM MDT (7/25) 9:23 AM MDT (7/25)
Length of Visible Light 15h 09m
Length of Day
14h 11m
Waning Gibbous, 88% of the Moon is Illuminated
Jul 25
Waning Gibbous
Jul 29
Last Quarter
Aug 6
New
Aug 14
First Quarter
Aug 20
Full

Hourly Weather History & Observations

Time (MDT) Temp. Dew Point Humidity Pressure Visibility Wind Dir Wind Speed Gust Speed Precip Events Conditions
12:03 AM 66.2 °F 53.6 °F 64% 30.32 in 10.0 mi SSE 25.3 mph 29.9 mph N/A   Mostly Cloudy
12:53 AM 63.0 °F 55.0 °F 75% 30.03 in 10.0 mi SSE 18.4 mph 26.5 mph N/A   Clear
1:53 AM 62.1 °F 52.0 °F 70% 30.05 in 10.0 mi WSW 8.1 mph - N/A   Clear
2:53 AM 61.0 °F 54.0 °F 78% 30.04 in 10.0 mi WSW 10.4 mph - N/A   Clear
3:53 AM 57.9 °F 53.1 °F 84% 30.02 in 10.0 mi SSW 4.6 mph - N/A   Scattered Clouds
4:53 AM 57.9 °F 53.1 °F 84% 30.00 in 10.0 mi Calm Calm - N/A   Clear
5:53 AM 55.9 °F 52.0 °F 87% 30.00 in 10.0 mi South 3.5 mph - N/A   Clear
6:53 AM 59.0 °F 54.0 °F 83% 29.99 in 10.0 mi Calm Calm - N/A   Clear
7:53 AM 61.0 °F 54.0 °F 78% 30.00 in 10.0 mi SSW 3.5 mph - N/A   Mostly Cloudy
8:53 AM 64.9 °F 55.9 °F 73% 30.01 in 10.0 mi South 4.6 mph - N/A   Scattered Clouds
9:53 AM 71.1 °F 55.0 °F 57% 29.97 in 10.0 mi SSW 5.8 mph - N/A   Clear
10:53 AM 75.0 °F 52.0 °F 44% 29.96 in 10.0 mi SSW 4.6 mph - N/A   Clear
11:53 AM 77.0 °F 53.1 °F 43% 29.95 in 10.0 mi SW 3.5 mph - N/A   Clear
12:53 PM 82.0 °F 51.1 °F 34% 29.92 in 10.0 mi South 4.6 mph - N/A   Clear
1:53 PM 82.0 °F 46.9 °F 29% 29.91 in 10.0 mi Calm Calm - N/A   Partly Cloudy
2:53 PM 78.1 °F 54.0 °F 43% 29.96 in 10.0 mi North 11.5 mph 25.3 mph 0.00 in   Overcast
3:17 PM 75.2 °F 53.6 °F 47% 30.21 in 10.0 mi NNE 25.3 mph 41.4 mph N/A   Scattered Clouds
3:53 PM 77.0 °F 55.0 °F 47% 29.95 in 10.0 mi NNE 17.3 mph - N/A   Scattered Clouds
4:53 PM 71.1 °F 54.0 °F 55% 29.99 in 10.0 mi NNE 19.6 mph 33.4 mph N/A   Clear
5:53 PM 77.0 °F 53.1 °F 43% 29.98 in 10.0 mi NNE 13.8 mph - N/A   Clear
6:53 PM 73.9 °F 53.1 °F 48% 30.01 in 10.0 mi NNE 9.2 mph - N/A   Overcast
7:53 PM 73.0 °F 50.0 °F 44% 30.04 in 10.0 mi North 11.5 mph - N/A   Overcast
8:53 PM 68.0 °F 55.9 °F 65% 30.07 in 10.0 mi North 8.1 mph - 0.00 in   Overcast
9:53 PM 68.0 °F 51.1 °F 55% 30.08 in 10.0 mi NNW 11.5 mph - N/A   Mostly Cloudy
10:53 PM 64.9 °F 55.9 °F 73% 30.09 in 10.0 mi NNE 5.8 mph - 0.02 in Rain Light Rain
11:53 PM 64.0 °F 53.1 °F 67% 30.08 in 10.0 mi NNE 6.9 mph - 0.00 in   Clear